This is the latest recevied weather packets stored in our database for station/object SP9MUF-14. If no packets are shown the sender has not sent any weather packets the latest 10 day(s).
| Time | Temp. | Humidity | Pressure | Rain* | Wind** | Luminosity | Snow |
|---|---|---|---|---|---|---|---|
| 1787847404 | 25° C | 38% | 1020 hPa | 0 mm | - | 57 W/m² | - |
| 1787847102 | 25° C | 39% | 1020 hPa | 0 mm | - | 62 W/m² | - |
| 1787846800 | 25.56° C | 39% | 1020 hPa | 0 mm | - | 67 W/m² | - |
| 1787846195 | 25.56° C | 38% | 1019.9 hPa | 0 mm | - | 75 W/m² | - |
| 1787845893 | 25.56° C | 36% | 1019.9 hPa | 0 mm | - | 82 W/m² | - |
| 1787845591 | 25.56° C | 38% | 1020.1 hPa | 0 mm | - | 87 W/m² | - |
| 1787845288 | 25.56° C | 38% | 1020.1 hPa | 0 mm | - | 95 W/m² | - |
| 1787844986 | 25.56° C | 38% | 1019.9 hPa | 0 mm | - | 103 W/m² | - |
| 1787844684 | 25.56° C | 37% | 1020 hPa | 0 mm | - | 111 W/m² | - |
| 1787844382 | 25.56° C | 36% | 1019.9 hPa | 0 mm | - | 119 W/m² | - |
| 1787844079 | 26.67° C | 36% | 1020 hPa | 0 mm | - | 130 W/m² | - |
| 1787843777 | 26.67° C | 36% | 1019.9 hPa | 0 mm | - | 140 W/m² | - |
| 1787843475 | 26.67° C | 36% | 1019.9 hPa | 0 mm | - | 151 W/m² | - |
| 1787843172 | 26.67° C | 37% | 1019.9 hPa | 0 mm | - | 162 W/m² | - |
| 1787842870 | 26.67° C | 37% | 1020 hPa | 0 mm | - | 175 W/m² | - |
| 1787842568 | 25.56° C | 38% | 1019.9 hPa | 0 mm | - | 186 W/m² | - |
| 1787842266 | 25.56° C | 38% | 1019.9 hPa | 0 mm | - | 201 W/m² | - |
| 1787841963 | 26.67° C | 36% | 1019.8 hPa | 0 mm | - | 211 W/m² | - |
| 1787841661 | 26.67° C | 36% | 1019.7 hPa | 0 mm | - | 226 W/m² | - |
| 1787841359 | 26.67° C | 37% | 1019.7 hPa | 0 mm | - | 240 W/m² | - |
| 1787841056 | 26.67° C | 36% | 1019.6 hPa | 0 mm | - | 251 W/m² | - |
| 1787840754 | 26.67° C | 37% | 1019.8 hPa | 0 mm | - | 266 W/m² | - |
| 1787840452 | 25.56° C | 37% | 1019.8 hPa | 0 mm | - | 277 W/m² | - |
| 1787840150 | 26.67° C | 37% | 1019.8 hPa | 0 mm | - | 296 W/m² | - |
| 1787839847 | 25.56° C | 38% | 1019.7 hPa | 0 mm | - | 304 W/m² | - |
* Rain latest hour (hover to see other rain measurements)
** Current wind speed in m/s (hover to see current wind gust speed)